FW3030 Weather Reports


Display with metric or nautical units.
time (UTC)temp
F
wind
direction
speed
MPH
gust
MPH
rain 1hr
in
rain 24hr
in
rain mn
in
humidity
%
barometer
mb
20260906053105 69 0 0.0 0.0 0.00 0.00 0.00 86 1017.9
20260906051607 70 0 0.0 2.0 0.00 0.00 0.00 86 1017.9
20260906050109 70 0 0.0 2.0 0.00 0.00 0.00 86 1017.8
20260906044606 70 0 0.0 2.0 0.00 0.00 0.00 86 1017.8
20260906043104 70 0 0.0 3.0 0.00 0.00 0.00 86 1017.8
20260906041606 70 0 0.0 2.0 0.00 0.00 0.00 86 1017.9
20260906040104 70 0 0.0 2.0 0.00 0.00 0.00 85 1017.9
20260906034640 70 51 0.0 2.0 0.00 0.00 0.00 85 1018.0
20260906033104 70 44 0.0 2.0 0.00 0.00 0.00 85 1018.1
20260906031605 70 0 0.0 4.0 0.00 0.00 0.00 85 1017.9
20260906030108 71 41 1.0 3.0 0.00 0.00 0.00 84 1018.0
20260906024604 71 36 1.0 2.0 0.00 0.00 0.00 83 1018.0
20260906023105 71 36 1.0 3.0 0.00 0.00 0.00 83 1017.9
20260906021612 72 30 1.0 2.0 0.00 0.00 0.00 82 1017.7
20260906020108 72 28 0.0 2.0 0.00 0.00 0.00 81 1017.6
20260906014604 73 0 0.0 2.0 0.00 0.00 0.00 80 1017.5
20260906013109 74 24 0.0 2.0 0.00 0.00 0.00 79 1017.3
20260906011607 75 22 1.0 3.0 0.00 0.00 0.00 77 1016.8
20260906010107 75 37 1.0 3.0 0.00 0.00 0.00 76 1016.5
20260906004605 76 90 0.0 3.0 0.00 0.00 0.00 75 1016.0
20260906003101 77 0 0.0 3.0 0.00 0.00 0.00 73 1015.8
20260906001605 78 37 1.0 3.0 0.00 0.00 0.00 71 1015.6
20260906000112 79 0 0.0 2.0 0.00 0.00 0.00 70 1015.7
20260905234621 80 117 0.0 4.0 0.00 0.00 0.00 69 1015.5
20260905233110 80 79 1.0 7.0 0.00 0.00 0.00 67 1015.2
20260905231608 81 40 1.0 6.0 0.00 0.00 0.00 66 1015.4
20260905230109 82 36 2.0 7.0 0.00 0.00 0.00 65 1015.7
20260905224624 83 80 2.0 5.0 0.00 0.00 0.00 64 1015.8
20260905223107 83 49 3.0 7.0 0.00 0.00 0.00 63 1015.6
20260905221605 84 49 3.0 8.0 0.00 0.00 0.00 62 1015.6
20260905220118 85 76 2.0 5.0 0.00 0.00 0.00 62 1015.7
20260905214606 85 48 2.0 6.0 0.00 0.00 0.00 62 1015.7
20260905213104 86 36 3.0 7.0 0.00 0.00 0.00 61 1015.7
20260905211605 85 122 1.0 5.0 0.00 0.00 0.00 63 1015.6
20260905210109 84 36 2.0 9.0 0.00 0.00 0.00 65 1015.7
20260905204603 84 42 3.0 7.0 0.00 0.00 0.00 65 1016.1
20260905203117 84 103 3.0 10.0 0.00 0.00 0.00 66 1016.2
20260905201604 84 52 2.0 8.0 0.00 0.00 0.00 66 1016.7
20260905200108 84 40 2.0 7.0 0.00 0.00 0.00 66 1017.3
20260905194609 83 49 2.0 6.0 0.00 0.00 0.00 67 1017.4
20260905193104 82 71 1.0 4.0 0.00 0.00 0.00 70 1017.2
20260905191611 81 0 1.0 5.0 0.00 0.00 0.00 71 1017.5
20260905184611 79 45 0.0 6.0 0.00 0.00 0.00 77 1017.7
20260905183107 78 88 1.0 4.0 0.00 0.00 0.00 75 1017.9
20260905181606 77 107 1.0 4.0 0.00 0.00 0.00 77 1018.2
20260905180059 76 76 1.0 3.0 0.00 0.00 0.00 78 1018.2
20260905174606 75 0 0.0 4.0 0.00 0.00 0.00 81 1018.2
20260905173102 75 52 2.0 6.0 0.00 0.00 0.00 80 1018.4
20260905171636 74 57 1.0 6.0 0.00 0.00 0.00 83 1018.2
20260905170108 72 42 0.0 3.0 0.00 0.00 0.00 86 1018.3
20260905164606 71 37 1.0 4.0 0.00 0.00 0.00 87 1018.6
20260905163102 70 67 1.0 6.0 0.00 0.00 0.00 91 1018.5
20260905161604 68 86 0.0 4.0 0.00 0.00 0.00 94 1018.4
20260905160111 67 46 0.0 2.0 0.00 0.00 0.00 95 1018.3
20260905154646 65 82 1.0 6.0 0.00 0.00 0.00 94 1018.2
20260905153104 65 46 1.0 4.0 0.00 0.00 0.00 95 1018.2
20260905151601 64 92 0.0 3.0 0.00 0.00 0.00 95 1019.1
20260905150108 64 39 0.0 2.0 0.00 0.00 0.00 95 1018.8
20260905144609 63 0 0.0 1.0 0.00 0.00 0.00 95 1019.4
20260905143106 63 49 0.0 3.0 0.00 0.00 0.00 95 1018.8
20260905141603 63 31 1.0 3.0 0.00 0.00 0.00 95 1018.2
20260905140107 62 0 1.0 3.0 0.00 0.00 0.00 95 1018.2
20260905134608 62 35 1.0 4.0 0.00 0.00 0.00 95 1018.3
20260905133102 62 45 1.0 3.0 0.00 0.00 0.00 95 1018.2
20260905131602 62 86 1.0 5.0 0.00 0.00 0.00 94 1018.2
20260905130106 62 43 1.0 3.0 0.00 0.00 0.00 95 1018.1
20260905124605 62 48 1.0 3.0 0.00 0.00 0.00 95 1017.7
20260905123105 62 46 1.0 3.0 0.00 0.00 0.00 95 1017.3
20260905121608 62 0 0.0 2.0 0.00 0.00 0.00 94 1017.2
20260905120105 62 0 0.0 3.0 0.00 0.00 0.00 94 1017.2
20260905114610 62 0 1.0 4.0 0.00 0.00 0.00 94 1017.0
20260905113101 62 88 1.0 6.0 0.00 0.00 0.00 94 1016.8
20260905111631 62 45 0.0 2.0 0.00 0.00 0.00 94 1016.9
20260905110112 62 34 1.0 3.0 0.00 0.00 0.00 94 1016.8
20260905104619 62 0 0.0 2.0 0.00 0.00 0.00 94 1016.9
20260905103118 62 0 0.0 3.0 0.00 0.00 0.00 94 1016.6
20260905101623 62 0 0.0 3.0 0.00 0.00 0.00 94 1016.7
20260905100109 62 63 0.0 2.0 0.00 0.00 0.00 94 1016.4
20260905094719 62 90 1.0 3.0 0.00 0.00 0.00 93 1015.9
20260905093132 62 0 1.0 4.0 0.00 0.00 0.00 93 1015.6
20260905091605 62 42 1.0 5.0 0.00 0.00 0.00 93 1015.7
20260905090103 62 43 1.0 6.0 0.00 0.00 0.00 93 1015.8
20260905084625 62 35 1.0 5.0 0.00 0.00 0.00 93 1015.9
20260905083119 63 35 1.0 4.0 0.00 0.00 0.00 93 1016.1
20260905081620 63 58 1.0 4.0 0.00 0.00 0.00 92 1016.3
20260905080121 63 0 0.0 4.0 0.00 0.00 0.00 92 1016.4
20260905074606 63 24 2.0 4.0 0.00 0.00 0.00 92 1016.5
20260905073112 63 80 0.0 3.0 0.00 0.00 0.00 92 1016.7
20260905071604 63 0 1.0 3.0 0.00 0.00 0.00 92 1016.7
20260905070104 63 57 1.0 2.0 0.00 0.00 0.00 92 1016.6
20260905064559 64 0 1.0 3.0 0.00 0.00 0.00 91 1016.6
20260905063108 64 0 0.0 3.0 0.00 0.00 0.00 91 1016.5
20260905061607 64 49 0.0 4.0 0.00 0.00 0.00 91 1016.5
20260905060110 64 90 1.0 4.0 0.00 0.00 0.00 91 1016.6
20260905054608 64 50 0.0 5.0 0.00 0.00 0.00 91 1016.5